Regional Weather Roundup
Issued by NWS

Home | Current Version | Previous Version | Graphics & Text | Print | Product List | Glossary On
Versions: 1 2 3 4 5 6 7 8 9 10 11 12 13 14 15 16 17 18 19 20 21 22 23 24 25 26 27 28 29 30 31 32 33 34 35 36 37 38 39 40 41 42 43 44 45 46 47 48 49 50
099
ASUS45 KBOI 280210
RWRID

IDAHO REGIONAL WEATHER ROUNDUP
NATIONAL WEATHER SERVICE BOISE ID
800 PM MDT FRI MAY 27 2016

NOTE: "FAIR" INDICATES FEW OR NO CLOUDS BELOW 12000 FEET
WITH NO SIGNIFICANT WEATHER AND/OR OBSTRUCTIONS TO VISIBILITY

IDZ012-014-280300-
SOUTHWEST IDAHO


CITY           SKY/WX    TMP DP  RH WIND       PRES   REMARKS
BOISE          SUNNY     66  23  19 N14       29.92R
CALDWELL       SUNNY     67  32  27 NW13      29.92R
MOUNTAIN HOME  SUNNY     69  33  26 NW20      29.91R
$$

IDZ016-017-280300-
SOUTHCENTRAL IDAHO


CITY           SKY/WX    TMP DP  RH WIND       PRES   REMARKS
BURLEY         CLEAR     61  32  33 W12G21    29.91R
JEROME         SUNNY     61  28  28 W17       29.93R
TWIN FALLS     CLEAR     61  29  29 W14G22    29.93R
$$

IDZ019>023-280300-
SOUTHEAST IDAHO


CITY           SKY/WX    TMP DP  RH WIND       PRES   REMARKS
IDAHO FALLS    PTCLDY    61  32  33 SW14G26   29.88R
POCATELLO      CLOUDY    62  37  39 SW18      29.92R
REXBURG        MOCLDY    60  31  33 SW13      29.87R
$$

IDZ006-010-011-018-031-032-280300-
CENTRAL IDAHO MOUNTAINS


CITY           SKY/WX    TMP DP  RH WIND       PRES   REMARKS
MCCALL         SUNNY     53  30  41 W8        29.96R
HAILEY         SUNNY     57  30  35 SW15      29.90R
STANLEY          N/A     52  25  35 NW10      29.96R
SALMON         CLOUDY    54  37  54 N9        29.93R
CHALLIS        MOSUNNY   53  37  54 NE18G29   29.89R
$$

IDZ002-004-006-007-026-280300-
NORTHERN IDAHO


CITY           SKY/WX    TMP DP  RH WIND       PRES   REMARKS
LEWISTON       CLOUDY    59  36  42 W15G22    29.99R
LOWELL           N/A     55  45  68 CALM      29.99S
COEUR D`ALENE  PTSUNNY   59  34  38 S14       29.95R
MULLAN PASS    MOSUNNY   40  29  64 VRB3      30.00R
$$




USA.gov is the U.S. government's official web portal to all federal, state and local government web resources and services.